Location: Widewater Village at Stafford
(38.4893°N, 77.3783°W)
Time: 11:42:02
(UTC+00:00)

BlueWalker 3 - Pass Details

Date: 04 December 2022
Orbit: 499 x 517 km, 53.2° (Epoch: 29 January)

Event Time Altitude Azimuth Distance (km) Brightness Sun altitude
Rises 23:19:16 0° 318° (NW) 2,627 6.0 -17.3°
Reaches altitude 10° 23:22:46 10° 351° (N) 1,732 4.6 -18.0°
Enters shadow 23:23:42 12° 5° (N) 1,630 4.3 -18.2°
